Slayton, MN

6:21 PM CDT on April 21, 2018 (GMT -0500)
Slayton

Weather History for KDVP - May, 2013

Change the Weather History Date:

Monday, May 27, 2013

  Actual Average (KOTG) Record (KOTG)
Temperature  
Mean Temperature 54 °F -  
Max Temperature 57 °F 67 °F 89 °F (2006)
Min Temperature 51 °F 48 °F 37 °F (2007)
Degree Days  
Heating Degree Days 11    
Growing Degree Days 4 (Base 50)    
Moisture  
Dew Point 54 °F    
Average Humidity 99    
Maximum Humidity 100    
Minimum Humidity 96    
Precipitation  
Precipitation 0.30 in - - ()
Sea Level Pressure  
Sea Level Pressure 29.87 in    
Wind  
Wind Speed 11 mph (ENE)    
Max Wind Speed 21 mph    
Max Gust Speed 28 mph    
Visibility 3 miles    
Events Fog , Rain , Thunderstorm    
Averages and records for this station are not official NWS values.
T = Trace of Precipitation, MM = Missing Value Source: NWS Daily Summary

Daily Weather History Graph

Daily Weather History Graph

Search for Another Location

Airport or City:

Astronomy

May. 27, 2013 Rise Set
Actual Time 5:46 AM CDT 8:54 PM CDT
Civil Twilight 5:11 AM CDT 9:29 PM CDT
Nautical Twilight 4:26 AM CDT 10:14 PM CDT
Astronomical Twilight 3:32 AM CDT 11:09 PM CDT
Moon 11:32 PM CDT (5/27) 8:26 AM CDT (5/27)
Length of Visible Light 16h 18m
Length of Day
15h 08m
Waning Gibbous, 91% of the Moon is Illuminated
May 27
Waning Gibbous
May 31
Last Quarter
Jun 8
New
Jun 16
First Quarter
Jun 23
Full

Hourly Weather History & Observations

Time (CDT) Temp. Dew Point Humidity Pressure Visibility Wind Dir Wind Speed Gust Speed Precip Events Conditions
12:13 AM 51.3 °F 51.1 °F 99% 29.97 in 3.0 mi East 11.5 mph - N/A   Overcast
12:33 AM 51.3 °F 51.1 °F 99% 29.97 in 3.0 mi East 12.7 mph 20.7 mph N/A   Overcast
12:53 AM 51.4 °F 51.3 °F 99% 29.99 in 2.5 mi ESE 16.1 mph - N/A   Overcast
1:14 AM 51.4 °F 51.3 °F 99% 29.97 in 2.0 mi East 10.4 mph 17.3 mph N/A   Overcast
1:33 AM 51.4 °F 51.3 °F 99% 29.96 in 1.2 mi East 11.5 mph - N/A   Overcast
1:54 AM 51.4 °F 51.3 °F 99% 29.98 in 1.0 mi East 8.1 mph - N/A   Overcast
2:14 AM 51.4 °F 51.3 °F 99% 29.98 in 0.8 mi SE 11.5 mph - N/A   Overcast
2:33 AM 51.4 °F 51.3 °F 99% 29.95 in 0.5 mi East 8.1 mph - 0.01 in Rain Rain
2:53 AM 51.4 °F 51.3 °F 99% 29.94 in 0.8 mi East 10.4 mph - 0.03 in Rain , Thunderstorm Light Thunderstorms and Rain
3:13 AM 51.4 °F 51.3 °F 99% 29.94 in 0.8 mi East 9.2 mph - 0.02 in Rain Rain
3:33 AM 51.4 °F 51.3 °F 99% 29.92 in 1.5 mi ESE 11.5 mph - 0.06 in Rain Rain
3:52 AM 51.4 °F 51.3 °F 99% 29.91 in 2.5 mi SE 16.1 mph - 0.08 in Rain Rain
4:13 AM 51.6 °F 51.4 °F 99% 29.91 in 3.0 mi SE 15.0 mph - 0.01 in Rain Light Rain
4:33 AM 51.8 °F 51.8 °F 100% 29.91 in 4.0 mi SSE 16.1 mph 20.7 mph 0.04 in Rain Rain
4:53 AM 52.0 °F 52.0 °F 100% 29.94 in 4.0 mi SSE 8.1 mph - 0.08 in Rain Rain
5:13 AM 52.7 °F 52.7 °F 100% 29.94 in 4.0 mi South 5.8 mph - 0.03 in Rain Rain
5:33 AM 52.7 °F 52.7 °F 100% 29.93 in 5.0 mi Calm Calm - 0.05 in Rain Rain
5:53 AM 52.7 °F 52.7 °F 100% 29.92 in 5.0 mi NNE 9.2 mph - 0.07 in Rain Light Rain
6:13 AM 52.7 °F 52.7 °F 100% 29.91 in 5.0 mi NE 4.6 mph - 0.01 in Rain Light Rain
6:34 AM 52.0 °F 52.0 °F 100% 29.88 in 3.0 mi North 6.9 mph - 0.02 in Rain Light Rain
6:53 AM 51.8 °F 51.8 °F 100% 29.85 in 1.2 mi NNE 10.4 mph 16.1 mph 0.02 in Rain Light Rain
7:13 AM 51.4 °F 51.4 °F 100% 29.86 in 0.8 mi NNE 12.7 mph 20.7 mph N/A Rain Light Rain
7:34 AM 51.4 °F 51.4 °F 100% 29.86 in 0.5 mi NE 16.1 mph 21.9 mph N/A Rain Light Rain
7:53 AM 51.4 °F 51.4 °F 100% 29.86 in 0.5 mi ENE 20.7 mph 27.6 mph N/A   Drizzle
8:14 AM 51.8 °F 51.8 °F 100% 29.86 in 0.5 mi ENE 17.3 mph 25.3 mph N/A   Drizzle
8:34 AM 52.2 °F 52.2 °F 100% 29.87 in 0.2 mi East 19.6 mph 24.2 mph N/A Rain Light Rain
8:53 AM 52.7 °F 52.7 °F 100% 29.86 in 0.2 mi East 18.4 mph 25.3 mph N/A Rain Light Rain
9:13 AM 53.1 °F 53.1 °F 100% 29.85 in 0.2 mi East 13.8 mph 25.3 mph N/A Rain Light Rain
9:34 AM 53.1 °F 53.1 °F 100% 29.86 in 0.5 mi North 13.8 mph - N/A Rain Light Rain
9:53 AM 53.1 °F 53.1 °F 100% 29.88 in 3.0 mi East 12.7 mph 17.3 mph 0.01 in Rain Light Rain
10:13 AM 53.8 °F 53.8 °F 100% 29.88 in 5.0 mi NNE 9.2 mph - 0.01 in Rain Rain
10:33 AM 54.1 °F 54.1 °F 100% 29.88 in 7.0 mi NNE 4.6 mph - 0.01 in Rain Rain
10:53 AM 54.5 °F 54.0 °F 98% 29.87 in 4.0 mi North 4.6 mph - 0.01 in   Overcast
11:13 AM 54.9 °F 54.5 °F 99% 29.87 in 5.0 mi North 4.6 mph - N/A   Overcast
11:33 AM 55.6 °F 54.7 °F 97% 29.87 in 5.0 mi NNE 5.8 mph - N/A   Overcast
11:52 AM 56.3 °F 55.2 °F 96% 29.86 in 7.0 mi NE 9.2 mph - N/A   Overcast
12:13 PM 55.4 °F 54.9 °F 98% 29.84 in 0.8 mi NNE 11.5 mph - N/A   Overcast
12:33 PM 55.2 °F 55.0 °F 99% 29.84 in 0.5 mi NE 12.7 mph - N/A Fog Fog
12:53 PM 55.6 °F 55.4 °F 99% 29.85 in 0.5 mi ENE 11.5 mph - N/A Fog Fog
1:14 PM 57.2 °F 57.0 °F 99% 29.86 in 0.8 mi ENE 13.8 mph - N/A   Overcast
1:33 PM 55.6 °F 55.4 °F 99% 29.87 in 1.5 mi NE 8.1 mph - N/A   Overcast
1:53 PM 56.1 °F 55.9 °F 99% 29.86 in 0.8 mi East 15.0 mph - N/A   Overcast
2:13 PM 55.8 °F 55.6 °F 99% 29.86 in 1.2 mi East 13.8 mph - N/A   Overcast
2:34 PM 56.5 °F 56.3 °F 99% 29.87 in 0.8 mi East 18.4 mph 23.0 mph N/A   Overcast
2:53 PM 56.3 °F 56.1 °F 99% 29.87 in 0.5 mi East 12.7 mph - N/A Fog Fog
3:12 PM 55.9 °F 55.8 °F 99% 29.87 in 0.5 mi ENE 10.4 mph - N/A Fog Fog
3:33 PM 55.8 °F 55.8 °F 100% 29.86 in 0.8 mi East 10.4 mph - N/A   Overcast
3:53 PM 55.9 °F 55.8 °F 99% 29.86 in 2.0 mi East 9.2 mph - N/A   Overcast
4:13 PM 55.9 °F 55.8 °F 99% 29.86 in 2.0 mi East 9.2 mph - N/A   Overcast
4:33 PM 56.3 °F 55.8 °F 98% 29.85 in 2.0 mi East 10.4 mph - N/A   Overcast
4:54 PM 56.3 °F 55.9 °F 99% 29.83 in 1.5 mi ENE 12.7 mph - N/A   Overcast
5:13 PM 56.1 °F 55.6 °F 98% 29.83 in 2.0 mi ENE 10.4 mph - N/A   Overcast
5:34 PM 55.8 °F 55.6 °F 99% 29.82 in 1.0 mi East 12.7 mph - N/A   Overcast
5:53 PM 55.8 °F 55.6 °F 99% 29.82 in 3.0 mi ENE 13.8 mph - N/A   Overcast
6:13 PM 55.9 °F 55.6 °F 99% 29.81 in 5.0 mi ENE 11.5 mph - N/A   Overcast
6:33 PM 55.8 °F 55.4 °F 99% 29.81 in 4.0 mi ENE 9.2 mph 13.8 mph N/A   Overcast
6:53 PM 55.9 °F 55.4 °F 98% 29.83 in 5.0 mi ENE 6.9 mph - N/A   Overcast
7:14 PM 55.8 °F 55.2 °F 98% 29.84 in 7.0 mi ENE 5.8 mph - N/A   Overcast
7:34 PM 55.8 °F 54.7 °F 96% 29.84 in 10.0 mi East 6.9 mph - N/A   Overcast
7:53 PM 55.6 °F 54.5 °F 96% 29.83 in 10.0 mi ENE 9.2 mph - N/A   Overcast
8:14 PM 55.4 °F 54.5 °F 97% 29.81 in 10.0 mi ENE 6.9 mph - N/A   Overcast
8:33 PM 55.4 °F 54.5 °F 97% 29.81 in 10.0 mi NE 6.9 mph - N/A   Overcast
8:54 PM 55.4 °F 54.7 °F 97% 29.81 in 7.0 mi ENE 6.9 mph - N/A   Overcast
9:13 PM 55.4 °F 54.7 °F 97% 29.81 in 7.0 mi East 6.9 mph - N/A   Overcast
9:33 PM 54.9 °F 54.5 °F 99% 29.82 in 5.0 mi East 9.2 mph - N/A   Overcast
9:53 PM 54.5 °F 54.5 °F 100% 29.83 in 4.0 mi East 9.2 mph - N/A   Overcast
10:13 PM 54.5 °F 54.3 °F 99% 29.81 in 1.5 mi ENE 8.1 mph - N/A   Overcast
10:33 PM 54.5 °F 54.3 °F 99% 29.83 in 1.0 mi ENE 10.4 mph - N/A   Overcast
10:53 PM 54.3 °F 54.3 °F 100% 29.83 in 1.0 mi ENE 8.1 mph - N/A   Overcast
11:12 PM 54.5 °F 54.5 °F 100% 29.81 in 1.2 mi ENE 9.2 mph - N/A   Overcast
11:33 PM 54.3 °F 54.3 °F 100% 29.80 in 1.2 mi ENE 10.4 mph - N/A   Overcast
11:53 PM 54.5 °F 54.5 °F 100% 29.79 in 0.5 mi ENE 10.4 mph - N/A Fog Fog